Find Starlink 37186

NORAD ID: 68617 Int'l Des: 2026-073 Owner: SPXS Country: US Constellation: starlink operational
LEOCIRCULARRETROGRADE

現在のビュー

3D地球を読み込み中...

About Starlink 37186

Starlink 37186 (NORAD 68617) is a starlink constellation satellite (v2 mini) launched Apr 7, 2026 by SPXS of US. It operates in LEO, CIRCULAR, RETROGRADE orbit with a mass of 575.00 kg.

次回通過

Passes for default location (London). Set your location on the main map for personalized predictions.

高度履歴

Loading altitude history...

軌道要素

1 68617U 26073R 26237.31114050 .00021563 00000-0 66909-3 0 9991
2 68617 97.2874 75.6446 0001123 102.7532 257.3836 15.33408718 21722
Epoch: Aug 25, 2026 • Age: 24 hours

現在のステータス

高度 469.2 km
遠地点 / 近地点 N/A
速度 7.63 km/s
衛星直下点 30.15°N, 8.53°W
打ち上げ日 Apr 7, 2026
運用期間 0.3 years
タイプ internet

技術仕様

分類 Payload
質量 575.00 kg
乾燥質量 530.00 kg
総質量 575.00 kg
長さ 0.30 m
直径 4.10 m
スパン 29.00 m
形状 Box + pan
製造者 SPXS
バスタイプ Starlink V2MO
フェーズステータス In Orbit
所有者/国 SPXS/US

Most Searched